Printer-friendly version

IAU Minor Planet Center

Minor Planet Center

MPEC 2006-V04 : 2005 UJ6

The following Minor Planet Electronic Circular may be linked-to from your own Web pages, but must not otherwise be redistributed electronically.


Read MPEC 2006-V03 Read MPEC 2006-V05


M.P.E.C. 2006-V04                                Issued 2006 Nov. 1, 13:38 UT

     The Minor Planet Electronic Circulars contain information on unusual
         minor planets and routine data on comets.  They are published
   on behalf of Commission 20 of the International Astronomical Union by the
          Minor Planet Center, Smithsonian Astrophysical Observatory,
                          Cambridge, MA 02138, U.S.A.

             Prepared using the Tamkin Foundation Computer Network

                              MPC@CFA.HARVARD.EDU
          URL http://cfa-www.harvard.edu/iau/mpc.html  ISSN 1523-6714

                                   2005 UJ6

                           Revision to MPEC 2005-U95

Additional Observations:
     K05U06J 2C2006 09 04.49520502 05 35.354-25 18 02.28         22.5 R EV004568
     K05U06J 2C2006 09 04.50015202 05 34.901-25 18 06.87         22.4 R EV004568
     K05U06J 2C2006 10 25.32990523 40 35.630-26 19 06.73         22.1 R EV004568
     K05U06J 2C2006 10 25.33359823 40 35.084-26 19 02.30         22.2 R EV004568
     K05U06J 2C2006 10 25.33736123 40 34.534-26 18 57.87         22.0 R EV004568

Observer details:
568 Mauna Kea.  Observer F. Bernardi.  Measurers F. Bernardi, D. J. Tholen.
    2.24-m University of Hawaii reflector + 2048 CCD.

First and last observations above in comparison with prediction:
Residuals in seconds of arc, reference and Delta-T
060904 568 13.8- 27.8-    061025 568 13.9- 18.9-    MPO 97873   +0.015 day

Orbital elements:
2005 UJ6                                                 Earth MOID = 0.1241 AU
Epoch 2006 Sept. 22.0 TT = JDT 2454000.5                MPC
M 193.28096              (2000.0)            P               Q
n   0.89217131     Peri.  131.29652     -0.96644368     -0.13305114
a   1.0686542      Node    42.45801     -0.02516497     -0.80225590
e   0.4161558      Incl.   18.99655     +0.25564298     -0.58196466
P   1.10           H   21.5           G   0.15           U   3
Residuals in seconds of arc
051028 703  0.8+  0.5+    051030 651  0.5+  1.3+    051118 F65  0.9-  0.8-
051028 703  0.6-  1.1-    051030 651  0.1+  0.4-    051119 715  0.2+  0.0
051028 703  0.3-  0.3+    051030 651 (2.4+  1.0+)   051119 715  0.6+  0.0
051028 703  0.1+  1.5+    051030 G96  0.1+  0.2-    051119 715  0.2-  0.0
051028 703  0.1-  0.7+    051030 G96  0.2+  0.0     051207 291  1.2+  0.3+
051028 703  0.3-  1.2+    051030 G96  0.2+  0.2+    051207 291  0.5-  0.2-
051028 703 (0.4+  1.5-)   051030 G96  0.4+  0.1+    051207 291  0.8-  0.6-
051028 703  0.5-  0.2-    051104 448  0.3-  0.5+    060904 568  0.1+  0.1-
051029 734  0.8+  0.0     051104 448  0.9+  0.4+    060904 568  0.0   0.0
051029 734  0.0   0.1-    051104 448  0.3-  0.8+    061025 568  0.1+  0.0
051029 G96  0.7+  0.1+    051109 J95  0.4-  0.3-    061025 568  0.0   0.1+
051029 G96  0.4+  0.0     051109 J95  0.0   0.3-    061025 568  0.1-  0.0
051029 G96  0.0   0.1-    051109 J95  0.4+  0.2-
051029 G96  0.2+  0.0     051118 F65  0.9-  0.2-

Ephemeris:
2005 UJ6                 a,e,i = 1.07, 0.42, 19                  q = 0.6239
Date    TT    R. A. (2000) Decl.     Delta      r     Elong.  Phase     V
2006 11 01    23 27.17   -23 57.4    0.630    1.432   122.3    35.8    22.7
2006 11 06    23 19.71   -22 02.1    0.654    1.416   117.3    38.4    22.9
2006 11 11    23 14.31   -20 02.7    0.680    1.399   112.5    40.8    23.0
2006 11 16    23 10.76   -18 01.1    0.708    1.381   107.8    43.0    23.1
2006 11 21    23 08.88   -15 58.7    0.735    1.361   103.4    44.9    23.2
2006 11 26    23 08.44   -13 56.2    0.763    1.340    99.1    46.6    23.3
2006 12 01    23 09.26   -11 54.2    0.790    1.318    95.1    48.2    23.4

Timothy B. Spahr             (C) Copyright 2006 MPC           M.P.E.C. 2006-V04

Read MPEC 2006-V03 Read MPEC 2006-V05


Our Web policy. Index to the CBAT/MPC/ICQ pages.


Valid HTML 4.01!